Location: Byszew
(52.1813°N, 19.2693°E)
Time: 10:55:38
(UTC+00:00)

AIST 2D - Pass Details

Date: 26 June 2022
Orbit: 433 x 444 km, 97.0° (Epoch: 07 August)

Event Time Altitude Azimuth Distance (km) Brightness Sun altitude
Rises 20:46:54 0° 9° (N) 2,428 ? -10.1°
Maximum altitude 20:52:12 55° 287° (WNW) 531 ? -10.5°
Drops below altitude 10° 20:55:26 10° 209° (SSW) 1,543 ? -10.7°
Enters shadow 20:56:18 - 207° (SSW) 1,911 ? -10.8°
